Theta_e
325 325 326 327 327 327 328 328 329 330 330 330 331 332 332 333 332 329 325 332 332 331 327 324 323 322 319 317 317 315 303 301 304 305 306 311 309 312 314 313 314 318 316 323 331
324 324 325 326 326 326 327 327 328 329 329 330 330 331 331 331 329 322 334 335 334 330 324 320 318 320 313 315 313 307 302 304 309 309 308 308 307 310 309 310 312 315 320 328 329
323 324 324 325 325 326 326 326 327 328 328 329 329 330 330 329 320 320 335 334 333 329 325 325 320 317 311 313 311 309 302 308 309 308 308 308 306 309 307 306 310 313 318 325 325
322 322 323 323 324 326 325 325 326 326 327 327 328 328 327 326 304 325 331 335 332 329 322 321 319 311 309 308 312 305 308 309 310 307 306 306 309 308 307 308 313 314 321 323 324
321 321 322 323 323 325 325 325 325 326 325 326 327 326 324 315 314 329 331 332 328 326 320 318 314 312 306 309 310 307 308 310 310 308 307 309 305 305 307 312 312 313 319 320 325
318 320 320 321 322 324 324 325 324 325 325 326 326 325 317 305 325 329 327 326 327 325 321 319 314 314 310 308 307 310 309 309 310 309 308 306 305 306 305 310 310 312 312 317 320
317 317 319 320 321 322 323 324 324 324 324 325 325 323 313 311 325 329 326 324 324 323 319 320 319 313 312 307 312 309 304 307 307 308 307 307 302 303 309 309 307 309 311 314 317
315 316 317 319 320 321 322 323 323 323 323 324 324 319 307 323 326 325 325 321 323 323 321 321 320 315 310 312 309 304 304 298 306 308 308 305 297 305 309 307 305 306 307 310 314
313 314 316 317 319 320 321 321 321 323 323 322 317 312 304 322 316 323 324 317 319 320 320 320 317 309 310 302 299 302 295 297 301 308 307 304 299 306 309 307 306 306 307 308 311
312 313 315 316 317 319 319 321 320 320 317 316 315 305 309 307 316 320 323 320 316 315 312 312 309 302 301 299 291 295 296 298 298 304 305 302 301 304 307 307 307 308 309 309 310
311 312 314 315 316 318 318 314 306 303 307 301 301 302 306 314 319 316 320 316 315 311 302 307 299 295 298 299 299 298 294 296 300 304 301 300 301 303 306 306 304 305 307 308 311
311 311 313 314 316 317 316 306 305 307 297 306 304 306 310 313 307 312 319 308 306 300 304 300 296 301 302 301 298 297 293 293 299 302 298 298 298 302 304 305 306 306 305 305 307
310 311 312 314 315 313 310 309 312 311 298 300 304 305 305 309 303 304 313 309 303 299 300 296 298 304 300 298 296 295 293 293 294 298 300 297 295 298 303 305 307 308 309 309 308
309 310 311 312 307 308 307 314 313 312 290 292 297 301 306 307 300 311 312 308 303 298 300 299 302 301 298 296 297 291 297 297 296 293 288 297 286 293 298 301 304 306 308 308 309
308 309 311 312 305 303 309 315 313 306 277 294 297 309 307 301 302 303 313 306 296 299 299 296 298 298 297 297 300 296 299 297 296 293 292 291 288 291 297 296 299 302 305 306 307
306 309 310 308 307 309 313 313 307 286 277 289 297 296 297 300 299 304 304 306 305 300 300 298 303 302 300 302 301 301 297 297 296 294 285 290 289 288 293 297 299 301 303 305 305
306 308 307 307 298 311 312 305 286 279 290 286 290 295 294 294 295 298 298 295 290 288 290 296 297 300 302 297 300 299 293 285 284 283 283 290 288 291 295 299 299 300 302 303 304
307 307 306 305 307 309 307 293 281 286 286 292 292 293 290 294 294 295 294 291 293 290 288 287 285 296 301 297 295 295 294 285 279 279 281 286 283 289 298 299 301 302 303 303 302
307 302 301 303 305 305 297 282 284 286 290 290 291 287 288 292 292 292 290 291 294 291 287 287 288 299 300 301 300 295 290 295 285 278 280 285 290 295 297 297 299 300 301 301 300
299 296 297 303 305 304 291 285 285 293 293 292 285 289 285 288 288 290 290 293 293 293 296 289 285 294 299 301 300 297 298 287 288 278 276 281 284 286 292 294 297 297 298 298 299
296 287 298 304 306 296 285 285 286 294 295 291 289 288 288 288 289 289 289 293 296 296 298 294 290 288 294 293 292 292 292 292 291 285 280 278 282 293 294 295 295 297 298 297 297
294 284 302 306 287 285 285 285 293 292 296 294 293 292 288 290 288 289 288 291 298 297 293 295 289 285 289 296 298 296 294 292 285 283 285 283 283 297 297 296 297 297 298 298 296
285 290 302 297 282 284 286 287 292 292 292 292 291 293 294 289 286 290 291 294 298 297 293 294 287 283 285 289 296 292 293 294 293 288 284 279 282 295 296 296 297 297 298 299 301
290 284 288 287 287 287 286 286 287 294 292 293 292 293 292 289 289 288 288 291 293 297 298 298 290 286 283 285 291 289 291 293 292 285 284 286 287 293 294 293 296 298 299 298 300
291 284 286 282 284 288 290 289 285 285 292 293 290 290 290 285 285 284 289 289 292 295 296 295 285 288 289 290 289 288 290 291 290 290 286 288 288 292 292 293 295 298 299 299 299
287 286 288 285 286 287 290 287 286 287 289 288 288 291 291 286 287 285 289 288 288 291 291 293 282 286 282 288 288 286 289 289 290 289 289 290 289 294 294 296 297 299 298 295 296
294 296 291 287 285 285 288 288 288 290 291 293 292 290 288 290 292 293 294 293 292 290 290 289 284 280 274 283 284 280 285 286 288 291 290 286 291 293 293 294 294 294 295 296 296
Wind_Speed
20 19 17 17 16 14 14 13 10 10 9 9 9 8 7 5 2 3 9 4 2 4 4 7 5 8 6 4 1 4 4 5 10 7 2 6 4 2 3 4 1 4 5 8 15
19 20 19 18 17 16 14 12 11 9 10 9 8 8 5 9 8 14 6 4 4 4 6 5 7 7 5 3 2 3 4 7 5 8 6 6 4 5 2 7 6 5 7 12 12
19 19 20 19 18 17 15 13 10 9 10 10 9 7 5 8 5 7 16 5 4 1 6 9 8 10 9 8 6 4 6 12 10 7 9 9 2 6 4 6 7 12 14 13 10
20 19 20 20 19 18 17 14 12 10 9 11 11 8 7 6 10 4 8 17 8 5 4 5 5 5 4 9 7 8 9 8 6 6 5 7 8 6 7 7 4 8 14 14 13
19 18 18 20 20 19 18 15 14 12 10 9 11 10 5 7 11 4 7 10 9 6 8 7 6 7 11 6 9 6 8 11 4 3 5 7 6 8 9 9 5 4 7 12 13
19 19 18 18 20 20 19 17 14 12 11 10 10 14 6 15 8 9 10 7 9 12 11 8 5 5 7 11 10 5 10 15 6 7 7 6 8 7 4 10 6 7 6 8 10
18 19 18 18 19 20 20 17 15 13 10 10 10 10 12 16 4 11 14 8 4 7 8 3 6 1 3 6 10 2 10 9 7 7 7 1 10 9 11 9 8 8 9 9 10
18 18 19 18 19 21 21 18 15 13 11 8 9 10 8 8 7 12 10 9 8 6 5 3 2 1 2 8 4 4 9 12 9 10 9 8 15 9 12 11 10 10 9 10 11
19 18 18 19 19 21 21 19 15 13 11 7 5 6 7 2 15 12 14 10 10 10 6 5 4 2 3 0 4 7 13 17 15 10 9 10 7 9 14 11 12 10 9 9 10
21 20 19 19 19 21 21 19 14 11 7 6 2 6 6 8 9 12 11 12 7 10 3 5 3 3 3 4 9 10 15 15 13 10 8 11 14 9 13 6 6 6 8 9 9
22 22 20 20 20 22 18 9 8 6 13 10 9 12 9 3 5 17 14 14 9 10 11 10 7 14 25 12 9 5 11 11 11 2 2 10 11 11 10 10 10 9 9 10 9
23 24 22 21 21 23 18 13 22 5 11 19 11 20 5 4 6 13 16 14 12 17 12 6 15 20 9 13 13 11 7 12 14 5 3 8 14 11 14 12 10 10 10 10 9
24 23 24 22 22 18 23 26 19 8 6 15 17 10 17 7 6 8 19 17 11 19 21 19 16 13 14 14 14 12 15 8 4 12 6 9 17 17 20 18 21 21 17 13 12
25 24 24 22 16 17 25 23 19 14 5 8 18 9 6 8 10 2 18 8 7 23 23 15 17 16 21 23 16 16 12 8 9 2 2 5 11 9 10 15 13 16 20 16 14
24 27 27 27 12 20 24 20 18 4 11 19 17 8 12 12 9 10 4 8 13 10 8 10 17 15 17 21 16 6 14 17 10 9 3 11 8 6 10 10 10 12 9 11 10
22 27 26 16 12 20 17 22 12 13 12 12 16 19 14 16 6 5 5 2 3 13 17 17 3 16 21 16 21 9 5 11 9 7 8 10 13 7 11 14 10 6 6 7 6
27 26 24 14 18 17 17 17 19 18 11 11 18 21 24 14 15 10 12 10 5 4 12 18 13 5 6 13 9 12 11 4 5 6 10 7 12 15 7 11 3 2 5 7 9
26 22 19 15 14 15 14 15 24 19 14 10 17 23 25 18 16 11 10 10 5 3 3 8 10 17 11 11 10 20 13 5 8 7 4 1 8 7 10 3 7 6 6 8 9
22 10 11 14 14 13 15 16 13 26 12 23 21 25 19 18 10 13 11 19 12 9 7 5 7 9 15 7 13 11 12 1 4 4 3 6 7 9 10 4 4 6 7 8 8
10 5 14 17 14 19 18 15 3 12 19 23 15 19 23 28 16 21 15 15 10 12 9 6 1 3 11 4 2 9 9 6 3 7 5 5 5 7 2 3 6 8 9 8 6
7 4 10 18 15 10 14 6 6 12 21 16 16 17 18 27 22 17 11 6 17 15 10 8 3 3 1 6 10 5 9 2 2 2 4 2 4 4 5 14 10 8 6 7 5
4 4 13 12 8 3 8 8 9 14 9 5 12 7 19 24 24 15 14 7 13 18 12 6 3 3 2 3 5 2 4 7 5 6 3 3 7 6 5 8 10 8 7 5 3
4 3 8 3 6 6 8 5 12 21 11 11 9 6 16 16 10 11 10 4 15 18 18 11 4 3 5 2 8 5 4 5 6 3 5 5 6 3 12 9 5 6 7 4 4
3 5 5 3 2 10 17 6 11 7 5 6 13 10 20 21 6 13 7 0 4 11 10 12 4 5 3 6 3 5 16 16 14 3 4 8 9 16 11 8 6 8 7 6 5
3 4 1 5 5 8 15 17 11 6 4 11 8 14 16 7 4 4 10 5 2 6 9 8 5 4 6 3 6 8 7 14 20 18 8 20 18 14 6 3 5 6 7 6 8
5 5 0 4 8 11 16 17 20 8 6 8 11 16 10 10 7 14 11 6 4 2 5 2 1 1 2 0 1 8 7 7 13 13 10 20 23 7 5 6 7 7 6 7 11
2 2 4 9 6 3 10 16 15 14 5 9 23 17 11 10 7 7 8 8 7 8 7 7 5 3 3 1 4 2 15 10 5 9 10 14 23 4 9 7 4 6 13 14 8
Wind_Direction
236 232 228 225 229 229 229 230 229 227 226 233 226 238 230 213 187 194 229 246 29 37 349 285 271 265 262 255 221 295 275 260 271 263 207 119 204 123 43 133 224 141 36 101 119
232 232 230 225 222 226 226 226 226 222 226 228 227 230 224 187 219 239 241 71 42 45 285 287 277 225 250 222 234 215 261 260 341 6 359 132 267 166 179 206 170 144 93 113 125
229 227 227 227 221 220 223 219 220 217 224 227 221 213 202 198 277 246 216 180 157 188 289 295 301 294 248 251 200 226 230 281 339 37 14 327 222 280 209 273 197 185 160 149 148
225 226 224 224 223 219 220 218 210 213 218 229 219 204 161 181 233 58 335 177 156 206 228 290 250 253 241 242 217 257 271 278 318 55 342 293 314 281 233 258 32 2 157 157 161
225 225 224 222 221 218 215 213 211 208 212 219 220 153 144 221 235 80 86 125 167 191 208 211 257 257 251 246 234 223 274 284 287 140 258 300 291 276 283 249 126 47 121 165 169
234 221 223 221 220 217 214 211 208 203 209 213 221 163 198 237 197 138 135 153 199 198 208 206 222 310 304 295 259 242 226 254 226 255 257 254 269 274 256 246 232 161 206 193 190
230 232 222 220 219 214 210 208 203 200 204 210 220 191 227 234 162 165 156 175 190 201 207 31 18 284 28 293 294 284 276 264 244 248 241 257 264 239 257 277 287 200 201 216 202
234 229 227 223 217 215 209 200 194 192 195 210 221 192 241 214 252 178 195 139 136 92 71 98 107 20 320 319 297 220 248 253 226 217 226 154 259 270 233 221 221 236 216 221 212
232 227 229 222 219 215 207 199 188 186 187 191 197 194 226 230 210 186 206 167 154 108 81 76 70 72 4 38 270 228 236 228 251 238 219 172 259 265 245 256 224 220 232 228 208
230 225 223 225 220 215 200 195 187 188 190 213 173 191 229 209 210 180 192 162 148 136 105 194 167 179 100 158 224 242 244 239 253 246 198 224 233 240 277 282 267 276 274 268 262
227 222 218 221 218 213 194 179 168 198 197 191 184 224 145 192 197 196 179 176 141 165 183 174 177 208 207 197 187 284 328 324 321 15 5 255 264 263 265 260 248 229 232 258 267
220 221 215 217 215 208 196 198 185 144 189 222 229 200 166 192 173 205 170 185 184 203 176 191 210 215 188 193 200 224 281 286 294 5 6 304 282 275 279 272 274 259 249 249 241
218 216 215 214 211 201 204 203 175 185 177 198 224 203 208 171 209 203 186 190 198 198 194 207 227 211 178 176 183 200 212 201 248 332 310 302 280 271 260 260 251 254 257 243 239
214 213 211 208 208 201 209 194 181 211 202 182 198 231 189 192 228 176 191 201 186 201 197 212 217 199 184 188 183 197 188 185 174 167 252 24 295 281 274 256 234 238 237 235 240
219 214 207 204 203 201 205 190 177 128 216 163 167 162 162 189 121 216 170 193 229 224 181 196 186 179 201 191 183 199 162 199 188 182 207 236 261 247 225 254 250 251 236 215 227
220 208 206 201 207 214 200 178 163 202 196 167 147 171 169 195 226 97 147 111 237 225 203 216 189 196 205 190 193 168 196 186 204 202 229 220 214 222 230 239 244 230 246 237 253
223 212 200 188 203 203 182 174 191 206 152 157 167 168 180 176 195 183 181 201 210 185 195 210 216 214 159 194 172 155 147 180 198 206 230 195 198 246 296 282 271 63 49 37 37
195 202 210 204 203 217 188 191 211 171 153 174 162 169 181 154 195 181 197 192 129 145 126 214 174 188 192 203 181 187 166 180 196 179 213 27 237 264 225 256 41 48 83 75 65
192 195 210 201 193 227 200 206 181 153 155 150 156 172 184 187 158 181 202 221 177 181 159 196 235 195 183 189 160 170 202 306 96 19 68 210 240 284 260 245 157 124 96 88 77
177 185 218 187 217 208 193 188 128 180 138 143 152 179 177 182 184 183 172 169 176 175 187 169 317 245 184 98 255 175 140 156 234 154 206 248 243 240 125 128 76 75 89 72 77
164 204 165 183 198 204 194 139 137 201 147 155 139 167 178 181 191 188 187 186 162 167 156 161 272 265 179 199 181 154 169 173 180 145 170 161 247 316 99 113 101 92 95 123 151
131 216 151 169 168 128 146 134 156 186 141 153 135 110 174 176 188 185 203 171 144 156 179 142 154 234 19 189 321 184 147 181 208 155 239 119 267 282 76 126 119 138 170 161 160
169 174 138 78 121 140 111 129 147 170 156 144 137 163 145 165 176 196 175 350 160 164 163 158 175 162 168 306 156 206 195 268 303 62 190 139 267 250 71 90 130 117 88 87 94
185 119 81 86 314 139 128 139 144 154 87 71 118 133 147 162 53 171 116 101 36 182 145 165 167 170 134 39 90 192 190 205 227 183 175 230 247 281 310 335 3 11 3 17 0
10 62 48 142 141 131 128 144 130 142 99 126 139 157 133 123 81 153 106 112 88 112 142 156 183 218 258 191 124 298 231 201 207 221 210 247 252 249 256 332 353 338 322 333 313
122 126 165 142 94 149 142 172 151 120 151 167 142 143 121 147 158 166 128 135 165 208 176 145 229 178 276 359 323 174 229 266 230 243 252 259 270 296 260 1 347 325 312 325 315
168 128 89 139 124 163 161 161 141 131 69 133 125 109 122 123 129 119 98 106 142 150 180 157 116 99 259 140 70 352 228 226 252 243 232 251 260 322 288 279 282 301 293 291 307